Tracking 22438 objects as of 24-Feb-2021
HD Live streaming from Space Station
objects crossing your sky now

CZ-4 DEB

Track CZ-4 DEB now!
10-day predictions


NORAD ID: 20866
Int'l Code: 1990-081AE
Perigee: 828.6 km
Apogee: 932.7 km
Inclination: 98.7 °
Period: 102.4 minutes
Semi major axis: 7251 km
RCS: 0.0056 m2 (small)
Launch date: September 3, 1990
Source: People's Republic of China (PRC)
Launch site: Taiyaun Space Center, China (TSC)

Note: This is SATELLITE DEBRIS
aabbcc
Your satellite tracking list
Your tracking list is empty




NASA's NSSDC Master Catalog

Two Line Element Set (TLE):
1 20866U 90081AE  21054.63881233  .00000369  00000-0  24587-3 0  9993
2 20866  98.7446  51.8811 0071826   3.3992  59.8573 14.05874825554708
Source of the keplerian elements: AFSPC